Other Public Products
Issued by NWS Grand Forks, ND

Home | Current Version | Previous Version | Text Only | Print | Product List | Glossary Off
Versions: 1 2 3 4 5 6 7 8 9 10 11 12 13 14 15 16 17 18 19 20 21 22 23 24 25 26 27 28 29 30 31 32 33 34 35 36 37 38 39 40 41 42 43 44 45 46 47 48 49 50

000
FPUS83 KFGF 271510
OPUFGF
PRAIRIE TO PINES WEATHER ROUNDUP
NATIONAL WEATHER SERVICE EASTERN NORTH DAKOTA/GRAND FORKS ND
1000 AM CDT SAT MAY 27 2017

 **SATELLITE DATA USED TO AUGMENT SKY COVER AT AUTOMATED STATIONS**
 *****  WEATHER ACROSS EASTERN NORTH DAKOTA  *****

CITY           SKY/WX    TMP DP  RH WIND       PRES   REMARKS
GRAND FORKS    FAIR      70  46  42 W13       29.77S
GRAND FORKS AF FAIR      69  46  43 W14       29.78S
GRAND CITY NWS NOT AVBL
BUXTON         NOT AVBL
DEVILS LAKE    FAIR      62  44  51 W17       29.81F
FARGO          FAIR      67  45  45 SW10      29.82S
WAHPETON ARPT  FAIR      70  41  35 W16       29.85S
$$

 *****  WEATHER ACROSS CENTRAL AND WESTERN NORTH DAKOTA  *****

CITY           SKY/WX    TMP DP  RH WIND       PRES   REMARKS
JAMESTOWN      FAIR      66  41  40 W10       29.84S
BISMARCK       FAIR      66  42  41 W9        29.89S
MINOT          FAIR      65  42  43 W14       29.81S
MINOT AFB      FAIR      64  42  45 W15       29.79F
GARRISON         N/A     59  41  51 W10       29.85S
WILLISTON      FAIR      64  42  44 W8G16     29.86F
DICKINSON      PTSUNNY   56  37  49 W16       29.91S
HETTINGER      FAIR      63  38  39 W17       29.96S
$$

 *****  OTHER OBSERVATIONS NORTHEAST NORTH DAKOTA  *****

CITY           SKY/WX    TMP DP  RH WIND       PRES   REMARKS
WALHALLA       NOT AVBL
LANGDON        FAIR      64  46  52 W17       29.77S
CAVALIER       FAIR      64  45  48 SW14G21   29.74R
GRAFTON        FAIR      66  46  48 W13       29.78R
CANDO          NOT AVBL
FORT TOTTEN      N/A     64  44  47 W7        29.95S
ROLLA          FAIR      63  41  45 W12       29.78R
RUGBY          NOT AVBL
 ***** THE ABOVE OBSERVATIONS ARE NON NWS ARE NOT QUALITY
        CONTROLLED AND MAY MIS-REPORT RAIN FOR SNOW...
$$

 *****  OTHER OBSERVATIONS SOUTHEAST NORTH DAKOTA *****

CITY           SKY/WX    TMP DP  RH WIND       PRES   REMARKS
COOPERSTOWN    FAIR      66  43  42 W14       29.83S
VALLEY CITY    FAIR      66  45  45 W12       29.86R
OAKES          NOT AVBL
GWINNER        SUNNY     68  45  42 MISG      29.87R
SHEYENNE NWR     N/A     68  46  45 W7        29.95S
BUFFALO        NOT AVBL
WYNDMERE         N/A     72  41  33 W14         N/A
 ***** THE ABOVE OBSERVATIONS ARE NON NWS ARE NOT QUALITY
       CONTROLLED AND MAY MIS-REPORT RAIN FOR SNOW...
$$

  *****  WEATHER ACROSS NORTHERN MINNESOTA  *****

CITY           SKY/WX    TMP DP  RH WIND       PRES   REMARKS
FLAG ISLAND    FAIR      55  48  76 SE10      29.73S
WARROAD        FAIR      64  50  59 SW7       29.76R
ROSEAU         FAIR      66  48  52 SW8       29.75S
HALLOCK        FAIR      66  46  48 SW7       29.74S
THF RVR FALLS  FAIR      64  44  48 SW10      29.79S
HALSTAD          N/A     68  45  43 W9          N/A
FOSSTON        FAIR      64  43  45 SW12      29.82S
BAUDETTE       FAIR      67  46  47 SW10      29.76F
WASKISH        FAIR      64  46  52 W7        29.80S
CROOKSTON      FAIR      66  45  45 W8        29.79S
$$
  *****  WEATHER ACROSS CENTRAL AND WEST MINNESOTA  *****

CITY           SKY/WX    TMP DP  RH WIND       PRES   REMARKS
BEMIDJI        FAIR      67  42  39 SW9       29.82S
PARK RAPIDS    FAIR      67  45  45 SW10      29.84F
WADENA         FAIR      64  46  52 SW8       29.86S
DETROIT LAKES  FAIR      64  43  45 W6        29.86R
MOORHEAD       FAIR      68  43  40 W8        29.84S
FERGUS FALLS   FAIR      64  48  55 W6        29.85S
ELBOW LAKE     FAIR      64  49  58 SW9       29.88S
MORRIS MN      FAIR      68  48  49 SW7       29.88S
STAPLES        FAIR      63  46  55 SW6       29.87R
WHEATON        FAIR      70  45  40 SW12      29.88S
$$
  *****  WEATHER ELSEWHERE ACROSS MINNESOTA  *****

CITY           SKY/WX    TMP DP  RH WIND       PRES   REMARKS
DULUTH         FAIR      66  46  48 W14       29.85S
INTRNTL FALLS  FAIR      66  43  43 W12       29.79S
ELY            FAIR      57  48  72 SW3       29.83S
CLOQUET        FAIR      66  39  37 W10       29.86S
BRAINERD       FAIR      63  46  54 SW7       29.87F
HIBBING        FAIR      60  44  55 W6        29.84F
ALEXANDRIA     FAIR      64  48  56 SW9       29.90R
SAINT CLOUD    FAIR      65  47  52 W5        29.90R
MINNEAPOLIS    PTSUNNY   69  46  43 NW7       29.89S
$$

  *****  WEATHER ACROSS SOUTH DAKOTA  *****

CITY           SKY/WX    TMP DP  RH WIND       PRES   REMARKS
SIOUX FALLS    CLOUDY    59  54  83 W3        29.94R
BROOKINGS      NOT AVBL
WATERTOWN      CLOUDY    62  48  60 W6        29.91R
HURON          CLOUDY    65  45  48 NW12      29.92S
SISSETON         N/A     69  47  45 W17       29.86S
ABERDEEN       FAIR      65  42  43 SW14      29.90S
MITCHELL       CLOUDY    61  53  75 SW8       29.95R
PIERRE         FAIR      57  51  80 W8        29.97R
MOBRIDGE       FAIR      64  43  46 W7        29.90S
RAPID CITY     FAIR      61  43  51 N14       30.01S
$$

  *****  SOME WEATHER IN NEARBY STATES *****

CITY           SKY/WX    TMP DP  RH WIND       PRES   REMARKS
GLASGOW MT     FAIR      58  40  51 N7        29.91S
GREAT FALLS MT FAIR      57  39  51 SW15      30.07R
CHEYENNE WY    CLOUDY    46  40  79 N9        30.11R
SCOTTSBLUFF NE PTSUNNY   56  44  64 NW12G22   30.06R
OMAHA NE       TSTM      58  53  84 NE7       29.92F
DES MOINES IA  CLOUDY    69  64  84 SE6       29.90R
DAVENPORT IA   CLOUDY    59  58  96 E8        29.93R
CHICAGO IL     FAIR      65  53  65 E5        29.92S
EAU CLAIRE WI  FAIR      68  52  56 W7        29.88R
LA CROSSE WI   FAIR      68  61  78 CALM      29.88S
$$

  *****  SOME NATIONAL WEATHER *****

CITY           SKY/WX    TMP DP  RH WIND       PRES   REMARKS
LA GUARDIA NY  PTSUNNY   71  53  52 NW5       29.86F
RALEIGH NC     FAIR      80  63  55 SW6       29.95F
ATLANTA GA     PTSUNNY   78  63  59 W10       30.07R
NEW ORLEANS LA PTSUNNY   84  75  74 S10       30.05R HX  92
OKLAHOMA CITY  FAIR      82  70  66 S24       29.74F
ALBUQUERQUE NM FAIR      65  20  17 W9        30.11R
SALT LAKE CITY FAIR      56  38  50 NW5       30.20R
LOS ANGELES CA PTSUNNY   60  54  80 W8        30.05R
BOISE ID       FAIR      57  41  55 SE5       30.17R
SEATTLE WA     FAIR      64  48  56 S3        30.09R
$$

*** WEATHER ACROSS MANITOBA...SASKATCHEWAN AND ONTARIO ***
                ***ONTARIO***

CITY           SKY/WX    TMP DP  RH WIND       PRES   REMARKS
GERALDTON      MOSUNNY   64  55  72 S10       29.77F
THUNDER BAY    PTSUNNY   63  52  67 SW5       29.78S
SIOUX LOOKOUT  PTSUNNY   61  50  67 S7        29.73F
TORONTO        PTSUNNY   64  57  77 CALM      29.90S
BIG TROUT LK   SUNNY     63  52  67 S3        29.65F
PICKLE LAKE    PTSUNNY   63  50  63 NW5       29.70S
DRYDEN         MOSUNNY   63  46  55 W18       29.74S
KENORA         MOSUNNY   61  46  59 SW9       29.74F
$$
                *** MANITOBA***

CITY           SKY/WX    TMP DP  RH WIND       PRES   REMARKS
BRANDON        MOSUNNY   59  45  58 W14       29.73S
DAUPHIN        MOSUNNY   61  45  55 NW15      29.68S
ISLAND LAKE    CLOUDY    57  50  77 S6        29.61S
PILOT MOUND      N/A     61  43  51 W7          N/A
THE PAS        CLOUDY    52  48  87 NW10      29.60R
THOMPSON       CLOUDY    48  48 100 NE8       29.56R FOG
WINNIPEG       MOSUNNY   64  46  52 W3        29.71S
LYNN LAKE      CLOUDY    41  39  93 NE9       29.66R
CHURCHILL      CLOUDY    37  36  93 NE9       29.69S
GILLAM         CLOUDY    48  48 100 NE7       29.60R FOG
$$
                ***SASKATCHEWAN***

CITY           SKY/WX    TMP DP  RH WIND       PRES   REMARKS
ESTEVAN        MOSUNNY   63  45  51 W17       29.80S
KINDERSLEY     PTSUNNY   59  46  63 NW14      29.89R
LLOYDMINSTER   MOSUNNY   59  45  58 N10       29.88R
PRINCE ALBERT  MOSUNNY   55  43  62 N13       29.77R
REGINA         MOSUNNY   59  41  51 NW5       29.81R
YORKTON          N/A     57  45  62 NW17G25   29.72S


USA.gov is the U.S. government's official web portal to all federal, state and local government web resources and services.